This demonstration page uses our WeatherBlox Daily Observations layout. Learn more.

Left ArrowRight Arrow

34.02893, -84.19858

Hourly Observations for March 24, 2022

Temp ( °F °C ) Dew Point ( °F °C ) Humidity (%) Winds ( mph kmh ) Pressure ( in mb ) Visibility ( mi km ) Precip ( " mm )
12:53 am 00:53 Clear 71 21.7 43 6.1 36 36 NW 14 22 29.85 1011 10 16 0.00 0.00
1:53 am 01:53 Clear 68 20 41 5 38 38 W 6 9 29.84 1011 10 16 0.00 0.00
2:53 am 02:53 Clear 71 21.7 41 5 34 34 W 8 13 29.85 1011 10 16 0.00 0.00
3:53 am 03:53 Clear 72 22.2 41 5 33 33 WNW 7 11 29.86 1011 10 16 0.00 0.00
4:53 am 04:53 Clear 62 16.7 41 5 46 46 W 5 7 29.87 1011 10 16 0.00 0.00
5:53 am 05:53 Clear 66 18.9 39 3.9 37 37 W 7 11 29.87 1011 10 16 0.00 0.00
6:53 am 06:53 Clear 66 18.9 39 3.9 37 37 WNW 6 9 29.88 1012 10 16 0.00 0.00
7:53 am 07:53 Sunny 61 16.1 39 3.9 44 44 WNW 6 9 29.90 1013 10 16 0.00 0.00
8:53 am 08:53 Sunny 66 18.9 38 3.3 36 36 NW 9 15 29.89 1012 10 16 0.00 0.00
9:53 am 09:53 Mostly Sunny 70 21.1 36 2.2 29 29 NNW 9 15 29.91 1013 10 16 0.00 0.00
10:53 am 10:53 Sunny 55 12.8 38 3.3 53 53 WNW 10 17 29.92 1013 10 16 0.00 0.00
11:53 am 11:53 Sunny 59 15 37 2.8 44 44 WNW 14 22 29.93 1013 10 16 0.00 0.00
12:53 pm 12:53 Sunny 61 16.1 36 2.2 39 39 W 9 15 29.90 1013 10 16 0.00 0.00
1:53 pm 13:53 Sunny 62 16.7 35 1.7 37 37 W 12 19 29.88 1012 10 16 0.00 0.00
2:53 pm 14:53 Sunny 64 17.8 34 1.1 33 33 W 16 26 29.86 1011 10 16 0.00 0.00
3:53 pm 15:53 Sunny 65 18.3 34 1.1 32 32 WSW 10 17 29.83 1010 10 16 0.00 0.00
4:53 pm 16:53 Sunny 65 18.3 30 -1.1 27 27 W 16 26 29.83 1010 10 16 0.00 0.00
5:53 pm 17:53 Sunny 64 17.8 30 -1.1 28 28 WSW 13 20 29.82 1010 10 16 0.00 0.00
6:53 pm 18:53 Sunny 63 17.2 28 -2.2 27 27 W 12 19 29.83 1010 10 16 0.00 0.00
7:53 pm 19:53 Clear 59 15 28 -2.2 31 31 W 6 9 29.86 1011 10 16 0.00 0.00
8:53 pm 20:53 Clear 57 13.9 29 -1.7 34 34 WNW 7 11 29.87 1012 10 16 0.00 0.00
9:53 pm 21:53 Clear 53 11.7 31 -0.6 43 43 Calm 29.88 1012 10 16 0.00 0.00
10:53 pm 22:53 Clear 50 10 32 0 50 50 Calm 29.91 1013 10 16 0.00 0.00
11:53 pm 23:53 Partly Cloudy 47 8.3 34 1.1 61 61 Calm 29.91 1013 10 16 0.00 0.00

Powered by AerisWeather